Year,Month,Day,Hour,Minute,Value (Times are PST for temperature in C)
2015,04,22,00,00,8.60
2015,04,22,00,01,8.60
2015,04,22,00,02,8.60
2015,04,22,00,03,8.60
2015,04,22,00,04,8.60
2015,04,22,00,05,8.50
2015,04,22,00,06,8.50
2015,04,22,00,07,8.50
2015,04,22,00,08,8.50
2015,04,22,00,09,8.50
2015,04,22,00,10,8.60
2015,04,22,00,11,8.60
2015,04,22,00,12,8.70
2015,04,22,00,13,8.70
2015,04,22,00,14,8.70
2015,04,22,00,15,8.70
2015,04,22,00,16,8.70
2015,04,22,00,17,8.70
2015,04,22,00,18,8.70
2015,04,22,00,19,8.70
2015,04,22,00,20,8.60
2015,04,22,00,21,8.60
2015,04,22,00,22,8.60
2015,04,22,00,23,8.60
2015,04,22,00,24,8.50
2015,04,22,00,25,8.50
2015,04,22,00,26,8.40
2015,04,22,00,27,8.40
2015,04,22,00,28,8.40
2015,04,22,00,29,8.40
2015,04,22,00,30,8.40
2015,04,22,00,31,8.50
2015,04,22,00,32,8.40
2015,04,22,00,33,8.50
2015,04,22,00,34,8.60
2015,04,22,00,35,8.50
2015,04,22,00,36,8.40
2015,04,22,00,37,8.40
2015,04,22,00,38,8.40
2015,04,22,00,39,8.40
2015,04,22,00,40,8.30
2015,04,22,00,41,8.30
2015,04,22,00,42,8.30
2015,04,22,00,43,8.30
2015,04,22,00,44,8.40
2015,04,22,00,45,8.40
2015,04,22,00,46,8.40
2015,04,22,00,47,8.50
2015,04,22,00,48,8.60
2015,04,22,00,49,8.60
2015,04,22,00,50,8.70
2015,04,22,00,51,8.70
2015,04,22,00,52,8.80
2015,04,22,00,53,8.70
2015,04,22,00,54,8.70
2015,04,22,00,55,8.70
2015,04,22,00,56,8.70
2015,04,22,00,57,8.70
2015,04,22,00,58,8.70
2015,04,22,00,59,8.80
2015,04,22,01,00,8.80
2015,04,22,01,01,8.80
2015,04,22,01,02,8.80
2015,04,22,01,03,8.80
2015,04,22,01,04,8.80
2015,04,22,01,05,8.80
2015,04,22,01,06,8.80
2015,04,22,01,07,8.80
2015,04,22,01,08,8.80
2015,04,22,01,09,8.80
2015,04,22,01,10,8.80
2015,04,22,01,11,8.80
2015,04,22,01,12,8.80
2015,04,22,01,13,8.80
2015,04,22,01,14,8.90
2015,04,22,01,15,8.90
2015,04,22,01,16,8.80
2015,04,22,01,17,8.80
2015,04,22,01,18,8.70
2015,04,22,01,19,8.70
2015,04,22,01,20,8.70
2015,04,22,01,21,8.80
2015,04,22,01,22,8.80
2015,04,22,01,23,8.90
2015,04,22,01,24,8.90
2015,04,22,01,25,8.90
2015,04,22,01,26,8.90
2015,04,22,01,27,8.90
2015,04,22,01,28,8.90
2015,04,22,01,29,8.90
2015,04,22,01,30,8.90
2015,04,22,01,31,8.90
2015,04,22,01,32,8.90
2015,04,22,01,33,8.90
2015,04,22,01,34,8.90
2015,04,22,01,35,8.90
2015,04,22,01,36,8.90
2015,04,22,01,37,8.90
2015,04,22,01,38,8.90
2015,04,22,01,39,8.90
2015,04,22,01,40,8.90
2015,04,22,01,41,8.90
2015,04,22,01,42,8.90
2015,04,22,01,43,8.90
2015,04,22,01,44,8.90
2015,04,22,01,45,8.90
2015,04,22,01,46,8.90
2015,04,22,01,47,8.90
2015,04,22,01,48,8.90
2015,04,22,01,49,8.90
2015,04,22,01,50,8.90
2015,04,22,01,51,8.90
2015,04,22,01,52,8.90
2015,04,22,01,53,8.90
2015,04,22,01,54,8.90
2015,04,22,01,55,8.90
2015,04,22,01,56,8.90
2015,04,22,01,57,8.90
2015,04,22,01,58,8.90
2015,04,22,01,59,8.90
2015,04,22,02,00,8.90
2015,04,22,02,01,8.90
2015,04,22,02,02,8.90
2015,04,22,02,03,8.90
2015,04,22,02,04,8.90
2015,04,22,02,05,8.90
2015,04,22,02,06,8.90
2015,04,22,02,07,8.90
2015,04,22,02,08,8.90
2015,04,22,02,09,8.90
2015,04,22,02,10,8.90
2015,04,22,02,11,8.80
2015,04,22,02,12,8.80
2015,04,22,02,13,8.80
2015,04,22,02,14,8.80
2015,04,22,02,15,8.80
2015,04,22,02,16,8.80
2015,04,22,02,17,8.80
2015,04,22,02,18,8.80
2015,04,22,02,19,8.80
2015,04,22,02,20,8.80
2015,04,22,02,21,8.80
2015,04,22,02,22,8.80
2015,04,22,02,23,8.80
2015,04,22,02,24,8.80
2015,04,22,02,25,8.90
2015,04,22,02,26,8.90
2015,04,22,02,27,8.90
2015,04,22,02,28,8.90
2015,04,22,02,29,8.90
2015,04,22,02,30,8.90
2015,04,22,02,31,8.90
2015,04,22,02,32,8.90
2015,04,22,02,33,8.90
2015,04,22,02,34,8.90
2015,04,22,02,35,8.90
2015,04,22,02,36,8.90
2015,04,22,02,37,8.90
2015,04,22,02,38,8.90
2015,04,22,02,39,8.90
2015,04,22,02,40,8.90
2015,04,22,02,41,8.90
2015,04,22,02,42,8.90
2015,04,22,02,43,8.90
2015,04,22,02,44,8.90
2015,04,22,02,45,8.90
2015,04,22,02,46,8.90
2015,04,22,02,47,8.90
2015,04,22,02,48,8.90
2015,04,22,02,49,8.80
2015,04,22,02,50,8.80
2015,04,22,02,51,8.90
2015,04,22,02,52,8.90
2015,04,22,02,53,8.80
2015,04,22,02,54,8.80
2015,04,22,02,55,8.90
2015,04,22,02,56,8.90
2015,04,22,02,57,8.90
2015,04,22,02,58,8.90
2015,04,22,02,59,8.90
2015,04,22,03,00,8.90
2015,04,22,03,01,8.90
2015,04,22,03,02,8.80
2015,04,22,03,03,8.80
2015,04,22,03,04,8.80
2015,04,22,03,05,8.90
2015,04,22,03,06,8.90
2015,04,22,03,07,8.80
2015,04,22,03,08,8.80
2015,04,22,03,09,8.80
2015,04,22,03,10,8.80
2015,04,22,03,11,8.80
2015,04,22,03,12,8.80
2015,04,22,03,13,8.80
2015,04,22,03,14,8.80
2015,04,22,03,15,8.80
2015,04,22,03,16,8.80
2015,04,22,03,17,8.80
2015,04,22,03,18,8.80
2015,04,22,03,19,8.80
2015,04,22,03,20,8.80
2015,04,22,03,21,8.80
2015,04,22,03,22,8.80
2015,04,22,03,23,8.80
2015,04,22,03,24,8.80
2015,04,22,03,25,8.70
2015,04,22,03,26,8.80
2015,04,22,03,27,8.80
2015,04,22,03,28,8.70
2015,04,22,03,29,8.70
2015,04,22,03,30,8.70
2015,04,22,03,31,8.80
2015,04,22,03,32,8.70
2015,04,22,03,33,8.70
2015,04,22,03,34,8.80
2015,04,22,03,35,8.80
2015,04,22,03,36,8.80
2015,04,22,03,37,8.70
2015,04,22,03,38,8.70
2015,04,22,03,39,8.80
2015,04,22,03,40,8.70
2015,04,22,03,41,8.70
2015,04,22,03,42,8.70
2015,04,22,03,43,8.70
2015,04,22,03,44,8.70
2015,04,22,03,45,8.80
2015,04,22,03,46,8.70
2015,04,22,03,47,8.70
2015,04,22,03,48,8.70
2015,04,22,03,49,8.70
2015,04,22,03,50,8.70
2015,04,22,03,51,8.70
2015,04,22,03,52,8.70
2015,04,22,03,53,8.70
2015,04,22,03,54,8.70
2015,04,22,03,55,8.70
2015,04,22,03,56,8.70
2015,04,22,03,57,8.70
2015,04,22,03,58,8.70
2015,04,22,03,59,8.70
2015,04,22,04,00,8.70
2015,04,22,04,01,8.70
2015,04,22,04,02,8.70
2015,04,22,04,03,8.70
2015,04,22,04,04,8.70
2015,04,22,04,05,8.80
2015,04,22,04,06,8.80
2015,04,22,04,07,8.70
2015,04,22,04,08,8.70
2015,04,22,04,09,8.70
2015,04,22,04,10,8.70
2015,04,22,04,11,8.70
2015,04,22,04,12,8.70
2015,04,22,04,13,8.70
2015,04,22,04,14,8.70
2015,04,22,04,15,8.70
2015,04,22,04,16,8.70
2015,04,22,04,17,8.70
2015,04,22,04,18,8.70
2015,04,22,04,19,8.70
2015,04,22,04,20,8.70
2015,04,22,04,21,8.70
2015,04,22,04,22,8.70
2015,04,22,04,23,8.70
2015,04,22,04,24,8.70
2015,04,22,04,25,8.70
2015,04,22,04,26,8.70
2015,04,22,04,27,8.70
2015,04,22,04,28,8.70
2015,04,22,04,29,8.70
2015,04,22,04,30,8.70
2015,04,22,04,31,8.70
2015,04,22,04,32,8.70
2015,04,22,04,33,8.70
2015,04,22,04,34,8.70
2015,04,22,04,35,8.70
2015,04,22,04,36,8.70
2015,04,22,04,37,8.70
2015,04,22,04,38,8.70
2015,04,22,04,39,8.70
2015,04,22,04,40,8.70
2015,04,22,04,41,8.70
2015,04,22,04,42,8.70
2015,04,22,04,43,8.60
2015,04,22,04,44,8.60
2015,04,22,04,45,8.60
2015,04,22,04,46,8.60
2015,04,22,04,47,8.60
2015,04,22,04,48,8.60
2015,04,22,04,49,8.60
2015,04,22,04,50,8.60
2015,04,22,04,51,8.60
2015,04,22,04,52,8.60
2015,04,22,04,53,8.60
2015,04,22,04,54,8.60
2015,04,22,04,55,8.60
2015,04,22,04,56,8.60
2015,04,22,04,57,8.60
2015,04,22,04,58,8.60
2015,04,22,04,59,8.60
2015,04,22,05,00,8.50
2015,04,22,05,01,8.50
2015,04,22,05,02,8.50
2015,04,22,05,03,8.50
2015,04,22,05,04,8.50
2015,04,22,05,05,8.50
2015,04,22,05,06,8.50
2015,04,22,05,07,8.50
2015,04,22,05,08,8.50
2015,04,22,05,09,8.50
2015,04,22,05,10,8.40
2015,04,22,05,11,8.40
2015,04,22,05,12,8.50
2015,04,22,05,13,8.40
2015,04,22,05,14,8.40
2015,04,22,05,15,8.40
2015,04,22,05,16,8.40
2015,04,22,05,17,8.50
2015,04,22,05,18,8.50
2015,04,22,05,19,8.40
2015,04,22,05,20,8.40
2015,04,22,05,21,8.40
2015,04,22,05,22,8.40
2015,04,22,05,23,8.40
2015,04,22,05,24,8.40
2015,04,22,05,25,8.40
2015,04,22,05,26,8.40
2015,04,22,05,27,8.40
2015,04,22,05,28,8.40
2015,04,22,05,29,8.40
2015,04,22,05,30,8.40
2015,04,22,05,31,8.40
2015,04,22,05,32,8.40
2015,04,22,05,33,8.40
2015,04,22,05,34,8.40
2015,04,22,05,35,8.30
2015,04,22,05,36,8.30
2015,04,22,05,37,8.30
2015,04,22,05,38,8.40
2015,04,22,05,39,8.30
2015,04,22,05,40,8.30
2015,04,22,05,41,8.30
2015,04,22,05,42,8.30
2015,04,22,05,43,8.30
2015,04,22,05,44,8.30
2015,04,22,05,45,8.30
2015,04,22,05,46,8.30
2015,04,22,05,47,8.30
2015,04,22,05,48,8.30
2015,04,22,05,49,8.30
2015,04,22,05,50,8.30
2015,04,22,05,51,8.30
2015,04,22,05,52,8.30
2015,04,22,05,53,8.30
2015,04,22,05,54,8.30
2015,04,22,05,55,8.30
2015,04,22,05,56,8.30
2015,04,22,05,57,8.30
2015,04,22,05,58,8.30
2015,04,22,05,59,8.30
2015,04,22,06,00,8.30
2015,04,22,06,01,8.30
2015,04,22,06,02,8.30
2015,04,22,06,03,8.30
2015,04,22,06,04,8.30
2015,04,22,06,05,8.30
2015,04,22,06,06,8.30
2015,04,22,06,07,8.30
2015,04,22,06,08,8.30
2015,04,22,06,09,8.30
2015,04,22,06,10,8.30
2015,04,22,06,11,8.30
2015,04,22,06,12,8.30
2015,04,22,06,13,8.30
2015,04,22,06,14,8.30
2015,04,22,06,15,8.30
2015,04,22,06,16,8.30
2015,04,22,06,17,8.30
2015,04,22,06,18,8.30
2015,04,22,06,19,8.30
2015,04,22,06,20,8.30
2015,04,22,06,21,8.30
2015,04,22,06,22,8.30
2015,04,22,06,23,8.30
2015,04,22,06,24,8.30
2015,04,22,06,25,8.20
2015,04,22,06,26,8.20
2015,04,22,06,27,8.30
2015,04,22,06,28,8.30
2015,04,22,06,29,8.30
2015,04,22,06,30,8.30
2015,04,22,06,31,8.30
2015,04,22,06,32,8.20
2015,04,22,06,33,8.20
2015,04,22,06,34,8.20
2015,04,22,06,35,8.20
2015,04,22,06,36,8.20
2015,04,22,06,37,8.20
2015,04,22,06,38,8.20
2015,04,22,06,39,8.20
2015,04,22,06,40,8.20
2015,04,22,06,41,8.20
2015,04,22,06,42,8.20
2015,04,22,06,43,8.20
2015,04,22,06,44,8.30
2015,04,22,06,45,8.20
2015,04,22,06,46,8.20
2015,04,22,06,47,8.20
2015,04,22,06,48,8.20
2015,04,22,06,49,8.20
2015,04,22,06,50,8.20
2015,04,22,06,51,8.20
2015,04,22,06,52,8.20
2015,04,22,06,53,8.20
2015,04,22,06,54,8.20
2015,04,22,06,55,8.20
2015,04,22,06,56,8.20
2015,04,22,06,57,8.20
2015,04,22,06,58,8.20
2015,04,22,06,59,8.20
2015,04,22,07,00,8.30
2015,04,22,07,01,8.30
2015,04,22,07,02,8.30
2015,04,22,07,03,8.30
2015,04,22,07,04,8.30
2015,04,22,07,05,8.30
2015,04,22,07,06,8.30
2015,04,22,07,07,8.30
2015,04,22,07,08,8.30
2015,04,22,07,09,8.30
2015,04,22,07,10,8.30
2015,04,22,08,06,8.30
2015,04,22,08,07,8.30
2015,04,22,08,08,8.30
2015,04,22,08,09,8.30
2015,04,22,08,10,8.30
2015,04,22,08,11,8.30
2015,04,22,08,12,8.30
2015,04,22,08,13,8.30
2015,04,22,08,14,8.30
2015,04,22,08,15,8.40
2015,04,22,08,16,8.40
2015,04,22,08,17,8.40
2015,04,22,08,18,8.40
2015,04,22,08,19,8.40
2015,04,22,08,20,8.40
2015,04,22,08,21,8.40
2015,04,22,08,22,8.40
2015,04,22,08,23,8.40
2015,04,22,08,24,8.40
2015,04,22,08,25,8.40
2015,04,22,08,26,8.40
2015,04,22,08,27,8.40
2015,04,22,08,28,8.40
2015,04,22,08,29,8.40
2015,04,22,08,30,8.40
2015,04,22,08,31,8.40
2015,04,22,08,32,8.40
2015,04,22,08,33,8.40
2015,04,22,08,34,8.40
2015,04,22,08,35,8.40
2015,04,22,08,36,8.50
2015,04,22,08,37,8.50
2015,04,22,08,38,8.50
2015,04,22,08,39,8.50
2015,04,22,08,40,8.50
2015,04,22,08,41,8.50
2015,04,22,08,42,8.50
2015,04,22,08,43,8.50
2015,04,22,08,44,8.50
2015,04,22,08,45,8.50
2015,04,22,08,46,8.50
2015,04,22,08,47,8.50
2015,04,22,08,48,8.50
2015,04,22,08,49,8.60
2015,04,22,08,50,8.60
2015,04,22,08,51,8.60
2015,04,22,08,52,8.60
2015,04,22,08,53,8.60
2015,04,22,08,54,8.60
2015,04,22,08,55,8.60
2015,04,22,08,56,8.60
2015,04,22,08,57,8.60
2015,04,22,08,58,8.60
2015,04,22,08,59,8.60
2015,04,22,09,00,8.60
2015,04,22,09,01,8.60
2015,04,22,09,02,8.60
2015,04,22,09,03,8.60
2015,04,22,09,04,8.70
2015,04,22,09,05,8.70
2015,04,22,09,06,8.70
2015,04,22,09,07,8.70
2015,04,22,09,08,8.70
2015,04,22,09,09,8.70
2015,04,22,09,10,8.70
2015,04,22,09,11,8.70
2015,04,22,09,12,8.70
2015,04,22,09,13,8.70
2015,04,22,09,14,8.70
2015,04,22,09,15,8.70
2015,04,22,09,16,8.70
2015,04,22,09,17,8.80
2015,04,22,09,18,8.80
2015,04,22,09,19,8.80
2015,04,22,09,20,8.80
2015,04,22,09,21,8.80
2015,04,22,09,22,8.80
2015,04,22,09,23,8.80
2015,04,22,09,24,8.80
2015,04,22,09,25,8.80
2015,04,22,09,26,8.80
2015,04,22,09,27,8.80
2015,04,22,09,28,8.80
2015,04,22,09,29,8.80
2015,04,22,09,30,8.80
2015,04,22,09,31,8.80
2015,04,22,09,32,8.80
2015,04,22,09,33,8.80
2015,04,22,09,34,8.80
2015,04,22,09,35,8.80
2015,04,22,09,36,8.80
2015,04,22,09,37,8.80
2015,04,22,09,38,8.80
2015,04,22,09,39,8.80
2015,04,22,09,40,8.80
2015,04,22,09,41,8.80
2015,04,22,09,42,8.80
2015,04,22,09,43,8.80
2015,04,22,09,44,8.80
2015,04,22,09,45,8.80
2015,04,22,09,46,8.80
2015,04,22,09,47,8.90
2015,04,22,09,48,8.90
2015,04,22,09,49,8.90
2015,04,22,09,50,8.90
2015,04,22,09,51,8.90
2015,04,22,09,52,8.90
2015,04,22,09,53,8.90
2015,04,22,09,54,8.90
2015,04,22,09,55,8.90
2015,04,22,09,56,8.90
2015,04,22,09,57,8.90
2015,04,22,09,58,8.90
2015,04,22,09,59,8.90
2015,04,22,10,00,8.90
2015,04,22,10,01,9.00
2015,04,22,10,02,9.00
2015,04,22,10,03,9.00
2015,04,22,10,04,9.00
2015,04,22,10,05,9.00
2015,04,22,10,06,9.00
2015,04,22,10,07,9.00
2015,04,22,10,08,9.00
2015,04,22,10,09,9.10
2015,04,22,10,10,9.10
2015,04,22,10,11,9.00
2015,04,22,10,12,9.00
2015,04,22,10,13,9.10
2015,04,22,10,14,9.10
2015,04,22,10,15,9.10
2015,04,22,10,16,9.10
2015,04,22,10,17,9.10
2015,04,22,10,18,9.10
2015,04,22,10,19,9.10
2015,04,22,10,20,9.10
2015,04,22,10,21,9.10
2015,04,22,10,22,9.10
2015,04,22,10,23,9.10
2015,04,22,10,24,9.10
2015,04,22,10,25,9.10
2015,04,22,10,26,9.10
2015,04,22,10,27,9.20
2015,04,22,10,28,9.20
2015,04,22,10,29,9.20
2015,04,22,10,30,9.20
2015,04,22,10,31,9.20
2015,04,22,10,32,9.20
2015,04,22,10,33,9.20
2015,04,22,10,34,9.20
2015,04,22,10,35,9.20
2015,04,22,10,36,9.20
2015,04,22,10,37,9.20
2015,04,22,10,38,9.20
2015,04,22,10,39,9.30
2015,04,22,10,40,9.30
2015,04,22,10,41,9.30
2015,04,22,10,42,9.30
2015,04,22,10,43,9.30
2015,04,22,10,44,9.30
2015,04,22,10,45,9.30
2015,04,22,10,46,9.30
2015,04,22,10,47,9.30
2015,04,22,10,48,9.30
2015,04,22,10,49,9.30
2015,04,22,10,50,9.30
2015,04,22,10,51,9.30
2015,04,22,10,52,9.30
2015,04,22,10,53,9.30
2015,04,22,10,54,9.40
2015,04,22,10,55,9.40
2015,04,22,10,56,9.40
2015,04,22,10,57,9.40
2015,04,22,10,58,9.40
2015,04,22,10,59,9.40
2015,04,22,11,00,9.40
2015,04,22,11,01,9.40
2015,04,22,11,02,9.40
2015,04,22,11,03,9.30
2015,04,22,11,04,9.40
2015,04,22,11,05,9.30
2015,04,22,11,06,9.30
2015,04,22,11,07,9.20
2015,04,22,11,08,9.20
2015,04,22,11,09,9.20
2015,04,22,11,10,9.20
2015,04,22,11,11,9.20
2015,04,22,11,12,9.20
2015,04,22,11,13,9.20
2015,04,22,11,14,9.20
2015,04,22,11,15,9.20
2015,04,22,11,16,9.20
2015,04,22,11,17,9.20
2015,04,22,11,18,9.20
2015,04,22,11,19,9.20
2015,04,22,11,20,9.20
2015,04,22,11,21,9.20
2015,04,22,11,22,9.20
2015,04,22,11,23,9.20
2015,04,22,11,24,9.20
2015,04,22,11,25,9.20
2015,04,22,11,26,9.20
2015,04,22,11,27,9.20
2015,04,22,11,28,9.20
2015,04,22,11,29,9.20
2015,04,22,11,30,9.20
2015,04,22,11,31,9.20
2015,04,22,11,32,9.20
2015,04,22,11,33,9.20
2015,04,22,11,34,9.20
2015,04,22,11,35,9.30
2015,04,22,11,36,9.30
2015,04,22,11,37,9.40
2015,04,22,11,38,9.40
2015,04,22,11,39,9.40
2015,04,22,11,40,9.50
2015,04,22,11,41,9.50
2015,04,22,11,42,9.40
2015,04,22,11,43,9.30
2015,04,22,11,44,9.30
2015,04,22,11,45,9.30
2015,04,22,11,46,9.30
2015,04,22,11,47,9.30
2015,04,22,11,48,9.30
2015,04,22,11,49,9.30
2015,04,22,11,50,9.30
2015,04,22,11,51,9.20
2015,04,22,11,52,9.20
2015,04,22,11,53,9.20
2015,04,22,11,54,9.30
2015,04,22,11,55,9.30
2015,04,22,11,56,9.30
2015,04,22,11,57,9.20
2015,04,22,11,58,9.30
2015,04,22,11,59,9.30
2015,04,22,12,00,9.30
2015,04,22,12,01,9.30
2015,04,22,12,02,9.30
2015,04,22,12,03,9.30
2015,04,22,12,04,9.20
2015,04,22,12,05,9.20
2015,04,22,12,06,9.20
2015,04,22,12,07,9.20
2015,04,22,12,08,9.20
2015,04,22,12,09,9.20
2015,04,22,12,10,9.10
2015,04,22,12,11,9.20
2015,04,22,12,12,9.20
2015,04,22,12,13,9.20
2015,04,22,12,14,9.20
2015,04,22,12,15,9.20
2015,04,22,12,16,9.20
2015,04,22,12,17,9.20
2015,04,22,12,18,9.20
2015,04,22,12,19,9.20
2015,04,22,12,20,9.20
2015,04,22,12,21,9.10
2015,04,22,12,22,9.10
2015,04,22,12,23,9.20
2015,04,22,12,24,9.20
2015,04,22,12,25,9.20
2015,04,22,12,26,9.30
2015,04,22,12,27,9.30
2015,04,22,12,28,9.30
2015,04,22,12,29,9.30
2015,04,22,12,30,9.40
2015,04,22,12,31,9.40
2015,04,22,12,32,9.40
2015,04,22,12,33,9.40
2015,04,22,12,34,9.40
2015,04,22,12,35,9.40
2015,04,22,12,36,9.50
2015,04,22,12,37,9.50
2015,04,22,12,38,9.50
2015,04,22,12,39,9.50
2015,04,22,12,40,9.50
2015,04,22,12,41,9.50
2015,04,22,12,42,9.50
2015,04,22,12,43,9.50
2015,04,22,12,44,9.50
2015,04,22,12,45,9.40
2015,04,22,12,46,9.40
2015,04,22,12,47,9.50
2015,04,22,12,48,9.50
2015,04,22,12,49,9.50
2015,04,22,12,50,9.50
2015,04,22,12,51,9.50
2015,04,22,12,52,9.50
2015,04,22,12,53,9.50
2015,04,22,12,54,9.60
2015,04,22,12,55,9.60
2015,04,22,12,56,9.60
2015,04,22,12,57,9.60
2015,04,22,12,58,9.60
2015,04,22,12,59,9.70
2015,04,22,13,00,9.70
2015,04,22,13,01,9.70
2015,04,22,13,02,9.70
2015,04,22,13,03,9.70
2015,04,22,13,04,9.70
2015,04,22,13,05,9.70
2015,04,22,13,06,9.80
2015,04,22,13,07,9.80
2015,04,22,13,08,9.70
2015,04,22,13,09,9.70
2015,04,22,13,10,9.70
2015,04,22,13,11,9.70
2015,04,22,13,12,9.80
2015,04,22,13,13,9.80
2015,04,22,13,14,9.80
2015,04,22,13,15,9.80
2015,04,22,13,16,9.80
2015,04,22,13,17,9.80
2015,04,22,13,18,9.80
2015,04,22,13,19,9.80
2015,04,22,13,20,9.80
2015,04,22,13,21,9.80
2015,04,22,13,22,9.90
2015,04,22,13,23,9.90
2015,04,22,13,24,10.00
2015,04,22,13,25,10.00
2015,04,22,13,26,10.00
2015,04,22,13,27,9.90
2015,04,22,13,28,10.00
2015,04,22,13,29,10.00
2015,04,22,13,30,10.00
2015,04,22,13,31,10.00
2015,04,22,13,32,10.00
2015,04,22,13,33,10.00
2015,04,22,13,34,10.10
2015,04,22,13,35,10.10
2015,04,22,13,36,10.10
2015,04,22,13,37,10.10
2015,04,22,13,38,10.10
2015,04,22,13,39,10.10
2015,04,22,13,40,10.10
2015,04,22,13,41,10.10
2015,04,22,13,42,10.10
2015,04,22,13,43,10.20
2015,04,22,13,44,10.30
2015,04,22,13,45,10.30
2015,04,22,13,46,10.30
2015,04,22,13,47,10.40
2015,04,22,13,48,10.40
2015,04,22,13,49,10.30
2015,04,22,13,50,10.30
2015,04,22,13,51,10.30
2015,04,22,13,52,10.30
2015,04,22,13,53,10.30
2015,04,22,13,54,10.30
2015,04,22,13,55,10.30
2015,04,22,13,56,10.30
2015,04,22,13,57,10.20
2015,04,22,13,58,10.20
2015,04,22,13,59,10.20
2015,04,22,14,00,10.20
2015,04,22,14,01,10.30
2015,04,22,14,02,10.30
2015,04,22,14,03,10.30
2015,04,22,14,04,10.20
2015,04,22,14,05,10.30
2015,04,22,14,06,10.30
2015,04,22,14,07,10.30
2015,04,22,14,08,10.30
2015,04,22,14,09,10.40
2015,04,22,14,10,10.40
2015,04,22,14,11,10.40
2015,04,22,14,12,10.50
2015,04,22,14,13,10.50
2015,04,22,14,14,10.50
2015,04,22,14,15,10.50
2015,04,22,14,16,10.50
2015,04,22,14,17,10.40
2015,04,22,14,18,10.40
2015,04,22,14,19,10.50
2015,04,22,14,20,10.50
2015,04,22,14,21,10.50
2015,04,22,14,22,10.50
2015,04,22,14,23,10.50
2015,04,22,14,24,10.50
2015,04,22,14,25,10.50
2015,04,22,14,26,10.50
2015,04,22,14,27,10.50
2015,04,22,14,28,10.60
2015,04,22,14,29,10.60
2015,04,22,14,30,10.60
2015,04,22,14,31,10.60
2015,04,22,14,32,10.70
2015,04,22,14,33,10.70
2015,04,22,14,34,10.80
2015,04,22,14,35,10.80
2015,04,22,14,36,10.80
2015,04,22,14,37,10.80
2015,04,22,14,38,10.80
2015,04,22,14,39,10.80
2015,04,22,14,40,10.80
2015,04,22,14,41,10.80
2015,04,22,14,42,10.80
2015,04,22,14,43,10.80
2015,04,22,14,44,10.80
2015,04,22,14,45,10.80
2015,04,22,14,46,10.80
2015,04,22,14,47,10.80
2015,04,22,14,48,10.80
2015,04,22,14,49,10.90
2015,04,22,14,50,10.90
2015,04,22,14,51,10.90
2015,04,22,14,52,10.90
2015,04,22,14,53,10.90
2015,04,22,14,54,10.90
2015,04,22,14,55,10.90
2015,04,22,14,56,10.90
2015,04,22,14,57,10.90
2015,04,22,14,58,10.90
2015,04,22,14,59,10.90
2015,04,22,15,00,10.90
2015,04,22,15,01,10.90
2015,04,22,15,02,10.90
2015,04,22,15,03,11.00
2015,04,22,15,04,11.10
2015,04,22,15,05,11.10
2015,04,22,15,06,11.10
2015,04,22,15,07,11.00
2015,04,22,15,08,11.00
2015,04,22,15,09,11.00
2015,04,22,15,10,11.10
2015,04,22,15,11,11.10
2015,04,22,15,12,11.20
2015,04,22,15,13,11.20
2015,04,22,15,14,11.10
2015,04,22,15,15,11.10
2015,04,22,15,16,11.20
2015,04,22,15,17,11.20
2015,04,22,15,18,11.20
2015,04,22,15,19,11.20
2015,04,22,15,20,11.20
2015,04,22,15,21,11.20
2015,04,22,15,22,11.20
2015,04,22,15,23,11.20
2015,04,22,15,24,11.20
2015,04,22,15,25,11.20
2015,04,22,15,26,11.20
2015,04,22,15,27,11.20
2015,04,22,15,28,11.10
2015,04,22,15,29,11.10
2015,04,22,15,30,11.10
2015,04,22,15,31,11.10
2015,04,22,15,32,11.10
2015,04,22,15,33,11.10
2015,04,22,15,34,11.20
2015,04,22,15,35,11.30
2015,04,22,15,36,11.30
2015,04,22,15,37,11.30
2015,04,22,15,38,11.30
2015,04,22,15,39,11.30
2015,04,22,15,40,11.20
2015,04,22,15,41,11.20
2015,04,22,15,42,11.20
2015,04,22,15,43,11.20
2015,04,22,15,44,11.30
2015,04,22,15,45,11.20
2015,04,22,15,46,11.20
2015,04,22,15,47,11.20
2015,04,22,15,48,11.20
2015,04,22,15,49,11.20
2015,04,22,15,50,11.30
2015,04,22,15,51,11.30
2015,04,22,15,52,11.30
2015,04,22,15,53,11.30
2015,04,22,15,54,11.30
2015,04,22,15,55,11.30
2015,04,22,15,56,11.30
2015,04,22,15,57,11.20
2015,04,22,15,58,11.20
2015,04,22,15,59,11.20
2015,04,22,16,00,11.20
2015,04,22,16,01,11.30
2015,04,22,16,02,11.30
2015,04,22,16,03,11.20
2015,04,22,16,04,11.20
2015,04,22,16,05,11.20
2015,04,22,16,06,11.20
2015,04,22,16,07,11.20
2015,04,22,16,08,11.10
2015,04,22,16,09,11.20
2015,04,22,16,10,11.20
2015,04,22,16,11,11.20
2015,04,22,16,12,11.10
2015,04,22,16,13,11.10
2015,04,22,16,14,11.10
2015,04,22,16,15,11.10
2015,04,22,16,16,11.10
2015,04,22,16,17,11.10
2015,04,22,16,18,11.10
2015,04,22,16,19,11.10
2015,04,22,16,20,11.10
2015,04,22,16,21,11.30
2015,04,22,16,22,11.30
2015,04,22,16,23,11.30
2015,04,22,16,24,11.20
2015,04,22,16,25,11.10
2015,04,22,16,26,11.10
2015,04,22,16,27,11.10
2015,04,22,16,28,11.10
2015,04,22,16,29,11.10
2015,04,22,16,30,11.20
2015,04,22,16,31,11.20
2015,04,22,16,32,11.20
2015,04,22,16,33,11.20
2015,04,22,16,34,11.20
2015,04,22,16,35,11.20
2015,04,22,16,36,11.20
2015,04,22,16,37,11.20
2015,04,22,16,38,11.20
2015,04,22,16,39,11.20
2015,04,22,16,40,11.20
2015,04,22,16,41,11.20
2015,04,22,16,42,11.20
2015,04,22,16,43,11.20
2015,04,22,16,44,11.10
2015,04,22,16,45,11.20
2015,04,22,16,46,11.20
2015,04,22,16,47,11.20
2015,04,22,16,48,11.20
2015,04,22,16,49,11.30
2015,04,22,16,50,11.30
2015,04,22,16,51,11.20
2015,04,22,16,52,11.20
2015,04,22,16,53,11.10
2015,04,22,16,54,11.10
2015,04,22,16,55,11.10
2015,04,22,16,56,11.10
2015,04,22,16,57,11.20
2015,04,22,16,58,11.20
2015,04,22,16,59,11.20
2015,04,22,17,00,11.20
2015,04,22,17,01,11.20
2015,04,22,17,02,11.10
2015,04,22,17,03,11.10
2015,04,22,17,04,11.10
2015,04,22,17,05,11.10
2015,04,22,17,06,11.10
2015,04,22,17,07,11.00
2015,04,22,17,08,11.00
2015,04,22,17,09,11.00
2015,04,22,17,10,11.00
2015,04,22,17,11,11.10
2015,04,22,17,12,11.00
2015,04,22,17,13,11.00
2015,04,22,17,14,11.00
2015,04,22,17,15,11.10
2015,04,22,17,16,11.10
2015,04,22,17,17,11.10
2015,04,22,17,18,11.10
2015,04,22,17,19,11.00
2015,04,22,17,20,11.00
2015,04,22,17,21,11.00
2015,04,22,17,22,11.10
2015,04,22,17,23,11.10
2015,04,22,17,24,11.10
2015,04,22,17,25,11.20
2015,04,22,17,26,11.20
2015,04,22,17,27,11.20
2015,04,22,17,28,11.10
2015,04,22,17,29,11.10
2015,04,22,17,30,11.00
2015,04,22,17,31,11.00
2015,04,22,17,32,10.90
2015,04,22,17,33,11.00
2015,04,22,17,34,11.10
2015,04,22,17,35,11.10
2015,04,22,17,36,11.20
2015,04,22,17,37,11.20
2015,04,22,17,38,11.10
2015,04,22,17,39,11.10
2015,04,22,17,40,11.10
2015,04,22,17,41,11.10
2015,04,22,17,42,11.10
2015,04,22,17,43,11.00
2015,04,22,17,44,11.00
2015,04,22,17,45,11.00
2015,04,22,17,46,10.90
2015,04,22,17,47,10.90
2015,04,22,17,48,10.90
2015,04,22,17,49,10.90
2015,04,22,17,50,10.80
2015,04,22,17,51,10.80
2015,04,22,17,52,10.80
2015,04,22,17,53,10.80
2015,04,22,17,54,10.90
2015,04,22,17,55,10.90
2015,04,22,17,56,10.90
2015,04,22,17,57,10.90
2015,04,22,17,58,10.90
2015,04,22,17,59,10.90
2015,04,22,18,00,10.90
2015,04,22,18,01,10.80
2015,04,22,18,02,10.80
2015,04,22,18,03,10.90
2015,04,22,18,04,10.90
2015,04,22,18,05,10.90
2015,04,22,18,06,10.80
2015,04,22,18,07,10.80
2015,04,22,18,08,10.80
2015,04,22,18,09,10.80
2015,04,22,18,10,10.80
2015,04,22,18,11,10.80
2015,04,22,18,12,10.70
2015,04,22,18,13,10.80
2015,04,22,18,14,10.70
2015,04,22,18,15,10.70
2015,04,22,18,16,10.70
2015,04,22,18,17,10.70
2015,04,22,18,18,10.70
2015,04,22,18,19,10.70
2015,04,22,18,20,10.70
2015,04,22,18,21,10.70
2015,04,22,18,22,10.70
2015,04,22,18,23,10.70
2015,04,22,18,24,10.70
2015,04,22,18,25,10.60
2015,04,22,18,26,10.60
2015,04,22,18,27,10.60
2015,04,22,18,28,10.60
2015,04,22,18,29,10.60
2015,04,22,18,30,10.60
2015,04,22,18,31,10.60
2015,04,22,18,32,10.60
2015,04,22,18,33,10.60
2015,04,22,18,34,10.60
2015,04,22,18,35,10.60
2015,04,22,18,36,10.60
2015,04,22,18,37,10.50
2015,04,22,18,38,10.50
2015,04,22,18,39,10.50
2015,04,22,18,40,10.60
2015,04,22,18,41,10.60
2015,04,22,18,42,10.60
2015,04,22,18,43,10.60
2015,04,22,18,44,10.60
2015,04,22,18,45,10.50
2015,04,22,18,46,10.50
2015,04,22,18,47,10.50